Regional Weather Roundup
Issued by NWS

Home | Current Version | Previous Version | Text Only | Print | Product List | Glossary On
Versions: 1 2 3 4 5 6 7 8 9 10 11 12 13 14 15 16 17 18 19 20 21 22 23 24 25 26 27 28 29 30 31 32 33 34 35 36 37 38 39 40 41 42 43 44 45 46 47 48 49 50
000
ASUS44 KMEG 301310
RWRTN
TENNESSEE HOURLY STATE WEATHER ROUNDUP
NATIONAL WEATHER SERVICE MEMPHIS TN
800 AM CDT THU OCT 30 2014

TNZ002-004-019-021-049-052-054-088>092-301400-
WEST TENNESSEE

CITY           SKY/WX    TMP DP  RH WIND       PRES   REMARKS
MEMPHIS INTL   PTCLDY    46  40  79 E3        30.17R
NWS MEMPHIS      N/A     41 N/A N/A MISG        N/A
JACKSON        CLEAR     37  35  92 CALM      30.17S
DYERSBURG      CLEAR     39  28  65 CALM      30.19R
UNION CITY     CLEAR     36  36 100 CALM      30.17R
PARIS          CLEAR     34  34 100 CALM      30.17R
HUNTINGDON     CLEAR     36  35  96 CALM      30.17R
SAVANNAH       CLEAR     34  34 100 CALM      30.17S
$$

TNZ008-025-027-028-033-062-065-066-301400-
NORTH MIDDLE TENNESSEE

CITY           SKY/WX    TMP DP  RH WIND       PRES   REMARKS
NASHVILLE      CLEAR     42  40  92 CALM      30.17S
DICKSON        CLEAR     37  36  93 CALM      30.15S
PORTLAND       CLEAR     34  34 100 CALM      30.15S
CLARKSVILLE    CLEAR     36  35  96 W3        30.18R
LEBANON        CLEAR     36  36 100 CALM      30.15R
SMYRNA         CLEAR     40  37  89 CALM      30.18R
MURFREESBORO   CLEAR     40  38  93 VRB3      30.16R
COOKEVILLE     CLEAR     37  37 100 CALM      30.15R
LIVINGSTON     CLEAR     39  37  92 CALM      30.14
GALLATIN       CLEAR     36  35  96 CALM      30.17R
CROSSVILLE     SUNNY     39  35  86 CALM      30.13R
ROCKWOOD       SUNNY     40  36  86 NW3       30.11R
$$

TNZ061-075-076-078-094-096-097-301400-
SOUTH MIDDLE TENNESSEE

CITY           SKY/WX    TMP DP  RH WIND       PRES   REMARKS
FAYETTEVILLE   CLEAR     43  37  81 NE15G190  30.14R
TULLAHOMA      CLEAR     36  32  87 CALM      30.15R
WINCHESTER     CLEAR     37  36  93 CALM      30.15S
MCMINNVILLE    CLEAR     37  37 100 CALM      30.15R
COLUMBIA       CLOUDY   N/A N/A N/A CALM      30.15R VSB 0
SHELBYVILLE    CLEAR     37  36  93 CALM      30.17R
$$

TNZ017-018-042-046-047-301400-
NORTHEAST TENNESSEE

CITY           SKY/WX    TMP DP  RH WIND       PRES   REMARKS
TRI CITIES     FOG       41  41 100 CALM      30.12R VSB 1/16
ELIZABETHTON   CLOUDY    34  34 100 CALM      30.12R
$$

TNZ012-013-036-069-073-074-301400-
CENTRAL EAST TENNESSEE

CITY           SKY/WX    TMP DP  RH WIND       PRES   REMARKS
KNOXVILLE      MOSUNNY   40  38  93 CALM      30.12R
OAK RIDGE      FOG       40  39  97 CALM      30.14R VSB 1/4
GATLINBURG     SUNNY     36  36 100 CALM      30.12R
MORRISTOWN     SUNNY     39  39 100 CALM      30.12R
$$

TNZ083-085-099-301400-
SOUTHEAST TENNESSEE

CITY           SKY/WX    TMP DP  RH WIND       PRES   REMARKS
CHATTANOOGA    SUNNY     45  41  86 CALM      30.14R
$$

SKY/WX REPORTED AS FAIR MEANS FEW OR NO CLOUDS BELOW
12 THOUSAND FEET.




USA.gov is the U.S. government's official web portal to all federal, state and local government web resources and services.